Precipitable_Water
0.73 0.78 0.83 0.91 0.98 1.03 1.08 1.14 1.16 1.15 1.16 1.16 1.12 1.06 1.01 1.00 1.01 1.04 1.03 1.03 1.01 1.03 1.09 1.11 1.14 1.16 1.12 1.15 1.19 1.22 1.24 1.24 1.25 1.23 1.21 1.19 1.17 1.17 1.16 1.16 1.16 1.16 1.19 1.17 1.18 1.16 1.21 1.28 1.33 1.35 1.39 1.40 1.41 1.41 1.36 1.38 1.43 1.48 1.53 1.61 1.63 1.58 1.53
0.73 0.75 0.80 0.87 0.92 0.99 1.05 1.13 1.18 1.18 1.18 1.18 1.16 1.13 1.07 0.98 0.98 0.98 0.97 0.98 0.97 0.97 1.03 1.07 1.10 1.09 1.10 1.13 1.17 1.20 1.19 1.22 1.24 1.24 1.24 1.26 1.20 1.19 1.20 1.20 1.18 1.17 1.18 1.18 1.21 1.23 1.23 1.28 1.29 1.34 1.36 1.40 1.40 1.41 1.35 1.34 1.41 1.45 1.49 1.55 1.57 1.56 1.51
0.73 0.73 0.78 0.84 0.89 0.94 1.01 1.10 1.16 1.16 1.17 1.19 1.20 1.17 1.09 1.03 0.97 0.93 0.94 0.94 0.95 0.98 1.03 1.04 1.04 1.03 1.06 1.12 1.15 1.14 1.19 1.22 1.23 1.23 1.19 1.20 1.15 1.16 1.23 1.24 1.23 1.21 1.21 1.22 1.21 1.22 1.25 1.25 1.26 1.29 1.34 1.36 1.40 1.42 1.36 1.33 1.36 1.42 1.46 1.51 1.54 1.51 1.47
0.73 0.73 0.76 0.81 0.86 0.93 0.99 1.03 1.10 1.15 1.18 1.18 1.18 1.17 1.16 1.12 1.10 1.02 0.96 0.92 0.90 0.93 0.95 0.98 1.01 1.02 1.05 1.08 1.09 1.11 1.15 1.19 1.24 1.23 1.22 1.25 1.21 1.22 1.23 1.23 1.24 1.24 1.23 1.19 1.20 1.22 1.25 1.25 1.24 1.25 1.29 1.32 1.37 1.42 1.40 1.33 1.36 1.38 1.43 1.49 1.49 1.50 1.48
0.71 0.74 0.77 0.82 0.88 0.92 0.93 0.94 0.96 1.03 1.07 1.12 1.16 1.20 1.22 1.22 1.20 1.15 1.05 0.98 0.93 0.88 0.89 0.93 0.99 1.04 1.08 1.09 1.08 1.09 1.10 1.14 1.21 1.23 1.25 1.29 1.28 1.29 1.25 1.22 1.24 1.21 1.21 1.24 1.24 1.22 1.21 1.22 1.22 1.22 1.23 1.27 1.32 1.38 1.39 1.37 1.35 1.38 1.39 1.46 1.44 1.45 1.44
0.68 0.72 0.75 0.79 0.83 0.86 0.87 0.88 0.90 0.94 1.00 1.09 1.13 1.18 1.24 1.26 1.26 1.21 1.15 1.09 1.03 1.02 1.01 1.01 1.02 1.04 1.02 1.05 1.06 1.08 1.14 1.19 1.20 1.22 1.26 1.30 1.29 1.27 1.26 1.26 1.26 1.25 1.23 1.21 1.25 1.23 1.23 1.20 1.19 1.21 1.19 1.22 1.26 1.33 1.38 1.37 1.36 1.37 1.36 1.41 1.42 1.41 1.37
0.67 0.71 0.72 0.75 0.80 0.83 0.87 0.89 0.93 0.97 1.03 1.09 1.20 1.27 1.28 1.29 1.26 1.26 1.28 1.21 1.14 1.09 1.08 1.05 1.04 1.05 1.02 1.05 1.06 1.07 1.09 1.13 1.18 1.21 1.28 1.30 1.30 1.27 1.28 1.29 1.30 1.29 1.29 1.31 1.26 1.25 1.23 1.19 1.17 1.19 1.19 1.18 1.22 1.27 1.33 1.35 1.36 1.37 1.36 1.37 1.38 1.38 1.36
0.63 0.72 0.74 0.74 0.77 0.82 0.87 0.93 0.97 1.01 1.05 1.10 1.14 1.20 1.21 1.25 1.27 1.27 1.28 1.29 1.24 1.20 1.18 1.15 1.15 1.13 1.11 1.12 1.11 1.09 1.11 1.15 1.22 1.26 1.29 1.29 1.31 1.29 1.31 1.31 1.31 1.32 1.33 1.29 1.29 1.27 1.23 1.21 1.20 1.19 1.20 1.18 1.19 1.22 1.30 1.34 1.35 1.37 1.36 1.34 1.34 1.35 1.35
0.69 0.71 0.73 0.77 0.81 0.86 0.92 0.94 0.96 0.98 0.98 0.98 1.00 1.07 1.17 1.23 1.24 1.26 1.28 1.31 1.34 1.29 1.23 1.24 1.26 1.27 1.25 1.20 1.17 1.16 1.18 1.18 1.21 1.23 1.24 1.23 1.26 1.26 1.28 1.30 1.31 1.33 1.30 1.29 1.30 1.30 1.26 1.23 1.21 1.19 1.18 1.17 1.19 1.21 1.24 1.30 1.32 1.39 1.39 1.34 1.33 1.32 1.32
0.58 0.68 0.70 0.70 0.74 0.79 0.86 0.90 0.96 0.98 0.94 0.92 0.95 0.99 1.05 1.13 1.19 1.24 1.28 1.30 1.33 1.33 1.33 1.31 1.34 1.38 1.38 1.35 1.31 1.32 1.32 1.29 1.25 1.22 1.21 1.20 1.23 1.24 1.27 1.30 1.30 1.31 1.28 1.28 1.29 1.28 1.28 1.27 1.24 1.23 1.20 1.18 1.18 1.21 1.22 1.27 1.30 1.34 1.39 1.36 1.32 1.33 1.33
0.54 0.60 0.65 0.69 0.69 0.71 0.74 0.78 0.82 0.86 0.89 0.91 0.92 0.94 1.00 1.07 1.14 1.21 1.24 1.28 1.30 1.33 1.37 1.39 1.39 1.40 1.40 1.40 1.39 1.41 1.40 1.38 1.37 1.34 1.32 1.28 1.27 1.26 1.27 1.28 1.29 1.31 1.28 1.28 1.26 1.29 1.30 1.27 1.28 1.26 1.24 1.20 1.19 1.21 1.23 1.25 1.28 1.29 1.35 1.38 1.35 1.34 1.36
0.47 0.48 0.53 0.60 0.67 0.69 0.70 0.73 0.79 0.84 0.88 0.93 0.96 0.98 0.98 1.03 1.10 1.16 1.24 1.28 1.31 1.34 1.39 1.42 1.43 1.40 1.39 1.41 1.41 1.41 1.40 1.41 1.42 1.40 1.38 1.36 1.35 1.34 1.33 1.32 1.32 1.32 1.32 1.29 1.26 1.28 1.30 1.27 1.26 1.25 1.24 1.25 1.25 1.24 1.26 1.28 1.29 1.30 1.32 1.34 1.33 1.35 1.37
0.38 0.44 0.46 0.51 0.57 0.63 0.67 0.68 0.70 0.77 0.81 0.87 0.94 1.01 1.04 1.05 1.10 1.17 1.23 1.28 1.34 1.37 1.40 1.44 1.45 1.44 1.40 1.40 1.39 1.39 1.37 1.37 1.38 1.40 1.42 1.43 1.42 1.43 1.41 1.38 1.37 1.36 1.35 1.34 1.30 1.26 1.24 1.27 1.26 1.27 1.27 1.28 1.27 1.26 1.27 1.28 1.29 1.32 1.32 1.31 1.33 1.34 1.36
0.36 0.42 0.48 0.49 0.52 0.52 0.52 0.54 0.59 0.66 0.75 0.81 0.88 0.98 1.05 1.09 1.10 1.13 1.20 1.24 1.32 1.37 1.41 1.45 1.46 1.44 1.41 1.40 1.39 1.38 1.37 1.37 1.40 1.41 1.42 1.45 1.47 1.46 1.45 1.44 1.43 1.44 1.46 1.46 1.41 1.36 1.30 1.25 1.23 1.25 1.26 1.27 1.26 1.26 1.29 1.29 1.28 1.30 1.32 1.31 1.31 1.34 1.36
0.29 0.41 0.40 0.40 0.43 0.48 0.49 0.52 0.56 0.61 0.69 0.76 0.81 0.89 0.99 1.04 1.08 1.13 1.17 1.22 1.30 1.35 1.38 1.44 1.45 1.44 1.41 1.40 1.38 1.37 1.40 1.43 1.44 1.45 1.46 1.45 1.45 1.44 1.44 1.47 1.50 1.52 1.53 1.53 1.51 1.49 1.44 1.36 1.30 1.26 1.23 1.23 1.23 1.22 1.25 1.26 1.26 1.28 1.29 1.28 1.28 1.32 1.34
0.29 0.33 0.34 0.43 0.47 0.46 0.48 0.50 0.55 0.60 0.65 0.71 0.74 0.80 0.89 0.97 1.02 1.06 1.09 1.16 1.26 1.31 1.36 1.42 1.43 1.43 1.41 1.39 1.38 1.41 1.45 1.47 1.45 1.44 1.46 1.44 1.42 1.41 1.44 1.46 1.49 1.52 1.53 1.54 1.55 1.55 1.52 1.46 1.40 1.34 1.28 1.22 1.20 1.19 1.20 1.21 1.27 1.26 1.26 1.27 1.27 1.28 1.32
0.31 0.31 0.33 0.45 0.58 0.49 0.47 0.49 0.51 0.55 0.58 0.60 0.69 0.75 0.82 0.92 0.97 1.01 1.05 1.10 1.18 1.27 1.34 1.40 1.41 1.42 1.41 1.36 1.39 1.45 1.48 1.48 1.46 1.46 1.43 1.43 1.44 1.45 1.45 1.46 1.49 1.51 1.52 1.55 1.57 1.58 1.58 1.53 1.45 1.36 1.32 1.28 1.23 1.19 1.17 1.18 1.22 1.24 1.21 1.21 1.24 1.29 1.31
0.32 0.32 0.36 0.37 0.39 0.44 0.44 0.46 0.49 0.50 0.54 0.58 0.63 0.69 0.76 0.83 0.92 0.95 0.95 1.03 1.10 1.21 1.30 1.33 1.37 1.38 1.39 1.37 1.42 1.46 1.47 1.47 1.47 1.46 1.44 1.45 1.44 1.45 1.48 1.50 1.51 1.51 1.53 1.55 1.56 1.60 1.61 1.58 1.52 1.44 1.37 1.33 1.27 1.22 1.19 1.18 1.18 1.19 1.16 1.15 1.18 1.22 1.28
0.32 0.32 0.31 0.31 0.33 0.45 0.42 0.43 0.50 0.53 0.53 0.60 0.63 0.64 0.68 0.77 0.85 0.90 0.95 1.00 1.10 1.26 1.31 1.30 1.32 1.36 1.38 1.41 1.42 1.42 1.46 1.48 1.46 1.45 1.45 1.44 1.46 1.50 1.52 1.51 1.51 1.51 1.52 1.53 1.60 1.63 1.59 1.59 1.59 1.52 1.45 1.37 1.29 1.22 1.21 1.19 1.18 1.15 1.14 1.12 1.13 1.15 1.20
0.35 0.35 0.34 0.34 0.38 0.45 0.44 0.44 0.45 0.50 0.58 0.60 0.62 0.66 0.69 0.73 0.76 0.86 0.97 1.04 1.14 1.21 1.26 1.28 1.30 1.36 1.40 1.41 1.41 1.43 1.45 1.45 1.44 1.43 1.44 1.49 1.51 1.52 1.52 1.52 1.49 1.53 1.58 1.60 1.63 1.61 1.62 1.63 1.61 1.60 1.54 1.45 1.38 1.31 1.25 1.21 1.18 1.12 1.11 1.11 1.10 1.12 1.16
0.33 0.34 0.36 0.38 0.38 0.40 0.46 0.50 0.50 0.52 0.52 0.55 0.60 0.64 0.67 0.69 0.76 0.87 0.97 1.01 1.02 1.10 1.18 1.24 1.27 1.29 1.36 1.36 1.36 1.39 1.40 1.40 1.42 1.44 1.49 1.52 1.52 1.53 1.53 1.53 1.55 1.57 1.59 1.60 1.59 1.60 1.60 1.63 1.61 1.62 1.61 1.56 1.48 1.40 1.33 1.27 1.21 1.12 1.08 1.09 1.09 1.10 1.14
0.35 0.37 0.39 0.46 0.53 0.58 0.58 0.57 0.56 0.55 0.57 0.61 0.58 0.60 0.65 0.69 0.75 0.81 0.89 1.01 1.01 1.06 1.12 1.16 1.20 1.22 1.27 1.28 1.28 1.29 1.33 1.36 1.39 1.42 1.45 1.49 1.51 1.50 1.50 1.52 1.53 1.52 1.58 1.60 1.61 1.65 1.67 1.68 1.67 1.64 1.60 1.61 1.61 1.47 1.34 1.35 1.29 1.17 1.10 1.08 1.09 1.12 1.16
0.40 0.50 0.56 0.56 0.55 0.57 0.63 0.65 0.62 0.62 0.64 0.60 0.59 0.60 0.62 0.70 0.75 0.78 0.88 0.95 0.99 1.04 1.09 1.13 1.14 1.18 1.21 1.22 1.26 1.29 1.34 1.37 1.38 1.39 1.42 1.46 1.46 1.45 1.46 1.47 1.50 1.55 1.61 1.57 1.58 1.60 1.61 1.61 1.64 1.66 1.65 1.63 1.62 1.51 1.44 1.40 1.36 1.23 1.12 1.07 1.08 1.11 1.13
0.56 0.57 0.57 0.59 0.64 0.64 0.65 0.67 0.68 0.69 0.66 0.64 0.62 0.61 0.65 0.70 0.75 0.79 0.85 0.93 1.00 1.05 1.09 1.10 1.11 1.15 1.19 1.22 1.28 1.33 1.36 1.38 1.38 1.38 1.40 1.42 1.40 1.40 1.43 1.48 1.54 1.57 1.62 1.57 1.57 1.57 1.60 1.65 1.65 1.68 1.69 1.66 1.61 1.59 1.54 1.49 1.45 1.34 1.23 1.12 1.06 1.05 1.06
0.66 0.66 0.69 0.69 0.68 0.67 0.71 0.75 0.74 0.72 0.73 0.71 0.63 0.64 0.68 0.71 0.75 0.79 0.82 0.90 0.97 1.05 1.08 1.07 1.08 1.13 1.16 1.23 1.31 1.38 1.40 1.41 1.43 1.43 1.43 1.41 1.40 1.42 1.44 1.49 1.53 1.61 1.68 1.64 1.63 1.62 1.67 1.71 1.68 1.68 1.69 1.68 1.70 1.73 1.71 1.70 1.68 1.54 1.37 1.27 1.16 1.11 1.12
0.69 0.70 0.73 0.77 0.82 0.83 0.80 0.80 0.76 0.72 0.67 0.66 0.66 0.69 0.70 0.71 0.74 0.78 0.84 0.89 0.95 0.98 1.02 1.06 1.11 1.21 1.28 1.31 1.35 1.39 1.36 1.35 1.36 1.39 1.40 1.40 1.44 1.49 1.52 1.60 1.64 1.64 1.61 1.63 1.64 1.64 1.66 1.68 1.65 1.63 1.65 1.71 1.73 1.74 1.72 1.70 1.76 1.75 1.60 1.45 1.29 1.20 1.16
0.78 0.79 0.78 0.81 0.82 0.82 0.85 0.86 0.85 0.81 0.78 0.80 0.77 0.77 0.75 0.73 0.75 0.79 0.87 0.92 0.90 0.90 1.02 1.14 1.20 1.26 1.28 1.29 1.31 1.33 1.31 1.33 1.35 1.35 1.39 1.45 1.49 1.54 1.57 1.57 1.52 1.53 1.53 1.53 1.60 1.61 1.62 1.63 1.65 1.66 1.67 1.71 1.73 1.71 1.71 1.71 1.69 1.75 1.72 1.61 1.48 1.36 1.28
0.82 0.88 0.91 0.90 0.90 0.89 0.89 0.90 0.87 0.87 0.85 0.82 0.82 0.78 0.79 0.78 0.79 0.85 0.90 0.93 0.91 0.93 1.04 1.15 1.23 1.29 1.27 1.23 1.24 1.30 1.32 1.35 1.41 1.45 1.46 1.52 1.54 1.52 1.51 1.56 1.59 1.59 1.58 1.59 1.60 1.57 1.58 1.62 1.62 1.64 1.64 1.66 1.65 1.67 1.67 1.68 1.68 1.71 1.72 1.72 1.65 1.55 1.46
0.81 0.83 0.85 0.86 0.89 0.93 0.92 0.91 0.89 0.88 0.89 0.91 0.92 0.90 0.88 0.83 0.84 0.91 0.96 0.95 0.97 1.02 1.03 1.10 1.23 1.26 1.25 1.24 1.23 1.26 1.32 1.38 1.40 1.43 1.48 1.48 1.49 1.48 1.47 1.53 1.53 1.54 1.59 1.60 1.61 1.59 1.59 1.60 1.61 1.58 1.55 1.56 1.58 1.61 1.64 1.68 1.69 1.68 1.66 1.67 1.70 1.67 1.56
0.89 0.90 0.91 0.95 0.95 0.95 0.97 0.95 0.93 0.93 0.96 0.96 0.97 0.99 0.99 0.93 0.92 0.97 0.97 1.01 1.19 1.18 1.18 1.22 1.23 1.24 1.21 1.21 1.22 1.26 1.31 1.36 1.40 1.44 1.44 1.45 1.46 1.45 1.43 1.43 1.46 1.51 1.53 1.54 1.52 1.52 1.52 1.55 1.54 1.51 1.47 1.45 1.52 1.57 1.60 1.67 1.69 1.72 1.68 1.64 1.67 1.68 1.68
0.92 0.91 0.94 0.96 0.98 1.01 1.00 0.96 0.94 0.95 0.96 0.98 0.98 1.01 1.03 1.08 1.04 1.06 1.05 1.12 1.21 1.17 1.19 1.23 1.25 1.25 1.23 1.25 1.27 1.28 1.32 1.36 1.38 1.42 1.44 1.45 1.46 1.42 1.41 1.40 1.43 1.42 1.46 1.48 1.46 1.46 1.44 1.44 1.50 1.48 1.44 1.47 1.47 1.50 1.57 1.64 1.70 1.71 1.69 1.65 1.63 1.65 1.70
0.99 1.00 1.01 1.05 1.06 1.07 1.03 1.03 1.01 0.99 0.96 0.97 1.02 1.01 1.04 1.05 1.06 1.00 1.06 1.16 1.18 1.21 1.19 1.19 1.20 1.22 1.23 1.28 1.32 1.34 1.35 1.35 1.36 1.40 1.44 1.45 1.47 1.45 1.43 1.40 1.41 1.40 1.42 1.45 1.45 1.45 1.41 1.41 1.47 1.47 1.49 1.49 1.50 1.50 1.55 1.64 1.68 1.70 1.71 1.69 1.69 1.70 1.74
1.02 1.02 1.02 1.03 1.10 1.11 1.07 1.04 1.00 0.98 0.98 0.96 1.04 1.07 1.08 1.10 1.10 1.12 1.15 1.18 1.23 1.25 1.24 1.18 1.17 1.18 1.21 1.25 1.30 1.36 1.37 1.36 1.38 1.40 1.44 1.45 1.45 1.47 1.49 1.48 1.47 1.46 1.46 1.45 1.46 1.44 1.45 1.50 1.51 1.50 1.52 1.50 1.51 1.56 1.61 1.63 1.66 1.66 1.68 1.67 1.64 1.64 1.68
1.07 1.06 1.09 1.13 1.14 1.14 1.09 1.06 1.02 1.01 0.99 0.99 1.05 1.10 1.11 1.12 1.15 1.19 1.22 1.23 1.28 1.29 1.25 1.17 1.13 1.15 1.18 1.24 1.30 1.34 1.37 1.36 1.38 1.37 1.40 1.45 1.48 1.47 1.49 1.53 1.55 1.52 1.51 1.51 1.54 1.51 1.51 1.57 1.59 1.58 1.58 1.57 1.59 1.62 1.64 1.64 1.66 1.67 1.65 1.62 1.57 1.59 1.64
1.13 1.12 1.14 1.13 1.14 1.13 1.08 1.06 1.04 1.03 1.02 1.02 1.08 1.09 1.09 1.10 1.14 1.20 1.23 1.28 1.32 1.35 1.28 1.21 1.17 1.18 1.19 1.23 1.27 1.29 1.34 1.35 1.36 1.36 1.39 1.45 1.52 1.56 1.57 1.55 1.57 1.57 1.60 1.72 1.79 1.75 1.66 1.63 1.66 1.70 1.73 1.73 1.71 1.68 1.63 1.62 1.61 1.66 1.79 1.84 1.76 1.66 1.65
1.14 1.15 1.15 1.17 1.17 1.15 1.12 1.11 1.08 1.05 1.04 1.06 1.10 1.10 1.09 1.09 1.11 1.15 1.19 1.25 1.29 1.30 1.23 1.18 1.17 1.15 1.16 1.19 1.21 1.25 1.27 1.30 1.34 1.37 1.38 1.40 1.45 1.49 1.57 1.64 1.67 1.69 1.66 1.71 1.77 1.80 1.80 1.76 1.70 1.75 1.77 1.75 1.81 1.87 1.77 1.70 1.76 1.89 1.92 1.89 1.89 1.84 1.79
1.13 1.13 1.13 1.15 1.12 1.10 1.09 1.09 1.09 1.08 1.05 1.06 1.09 1.08 1.08 1.09 1.11 1.13 1.15 1.16 1.20 1.21 1.19 1.16 1.11 1.10 1.11 1.14 1.15 1.20 1.23 1.26 1.28 1.31 1.33 1.37 1.40 1.40 1.43 1.48 1.60 1.66 1.68 1.70 1.72 1.69 1.67 1.69 1.70 1.72 1.74 1.72 1.65 1.73 1.81 1.79 1.76 1.77 1.81 1.86 1.87 1.87 1.86
1.19 1.19 1.18 1.16 1.12 1.10 1.08 1.07 1.07 1.05 1.05 1.08 1.10 1.09 1.09 1.09 1.11 1.13 1.14 1.15 1.12 1.12 1.11 1.10 1.09 1.06 1.09 1.12 1.16 1.20 1.23 1.25 1.28 1.33 1.36 1.41 1.45 1.46 1.42 1.42 1.42 1.51 1.50 1.49 1.49 1.49 1.47 1.43 1.40 1.38 1.37 1.41 1.44 1.46 1.49 1.56 1.59 1.58 1.62 1.67 1.72 1.74 1.76
Wind_Speed
21 20 20 20 21 22 22 23 23 24 25 25 25 25 25 25 26 26 26 27 28 28 28 28 28 27 27 26 26 25 24 24 23 22 22 21 21 20 20 19 19 18 18 17 17 16 16 16 15 15 15 14 14 14 13 14 13 12 11 11 10 9 8
21 21 20 20 21 22 23 23 23 24 25 25 25 25 25 25 26 26 26 27 28 28 28 28 28 28 27 27 26 26 25 25 24 23 22 22 22 21 21 20 20 19 19 18 18 17 17 17 16 16 16 15 15 15 14 15 15 14 13 12 12 11 10
22 21 21 21 21 22 22 23 23 24 25 25 26 26 26 26 26 26 26 27 27 28 28 28 28 28 28 27 27 27 26 25 25 24 24 23 23 22 21 21 21 20 20 19 19 18 18 17 17 18 17 16 16 16 16 16 16 15 15 14 13 12 11
23 22 21 21 22 22 22 22 23 24 25 26 27 27 27 27 26 25 26 26 27 27 28 28 28 28 27 27 27 27 27 26 26 25 25 24 23 23 22 22 22 21 21 21 20 19 19 18 18 18 19 18 18 17 17 17 17 16 16 15 15 14 13
23 23 22 21 21 21 21 22 23 23 25 26 27 27 27 27 26 26 25 26 26 27 28 28 27 27 27 27 27 26 27 27 27 26 25 24 24 23 23 23 23 22 22 22 21 21 20 19 19 19 19 19 19 19 18 18 18 18 17 17 17 16 15
24 23 22 21 21 21 21 22 23 24 25 26 27 27 27 28 28 27 26 26 26 26 27 27 27 27 27 27 27 27 27 27 27 27 26 25 25 24 24 24 24 24 23 23 22 22 21 21 20 20 20 20 20 20 20 19 19 19 19 18 18 17 16
23 23 23 22 22 22 21 21 22 23 24 25 26 27 27 28 28 28 27 26 26 27 27 27 27 27 27 27 27 27 27 27 27 27 27 26 26 26 25 25 25 25 24 24 23 23 22 22 21 21 21 20 21 21 21 21 20 20 20 20 19 19 18
22 22 23 22 22 22 21 21 21 21 22 23 25 26 27 28 28 28 28 28 27 27 27 26 27 26 26 26 26 27 27 27 27 27 27 26 26 26 26 26 26 26 25 25 24 24 24 23 23 22 22 21 21 21 22 22 22 21 21 21 21 20 20
20 20 21 22 22 21 21 20 20 20 21 22 24 25 27 28 28 28 29 28 28 28 28 27 27 26 26 26 26 26 26 26 26 26 27 27 26 26 26 26 25 26 26 26 25 25 25 24 24 23 23 23 22 22 22 23 23 22 22 22 22 21 21
18 19 20 21 21 21 21 21 21 22 22 22 23 24 26 27 28 29 29 29 28 29 29 28 27 27 26 26 26 26 25 25 25 25 26 26 26 26 26 25 25 25 25 25 26 26 25 25 25 24 24 24 23 23 23 24 24 24 24 23 23 23 22
17 18 19 20 21 22 23 22 22 23 23 23 24 24 25 26 27 28 29 29 29 29 30 29 28 28 27 26 26 26 26 25 25 25 25 25 25 25 25 24 24 24 24 25 25 26 26 26 25 25 25 25 24 24 24 24 25 25 25 25 24 24 24
16 17 18 19 20 21 22 22 23 23 24 24 24 25 25 26 26 27 28 29 29 29 30 30 29 29 28 28 27 27 27 26 26 25 25 24 24 23 23 23 23 23 23 23 24 25 26 26 26 26 26 26 25 25 25 25 26 26 26 26 26 25 25
16 17 18 18 19 20 20 21 22 23 23 23 24 24 25 26 26 26 26 28 29 29 30 30 30 29 29 29 28 28 28 27 27 26 25 24 24 23 22 22 22 22 21 21 22 23 25 26 26 26 27 27 26 26 26 26 27 27 28 27 27 26 26
15 17 18 18 18 19 19 20 21 22 22 22 23 24 25 26 26 26 26 27 28 29 29 29 30 30 30 29 29 29 29 29 28 27 26 25 24 24 23 22 22 22 21 20 20 21 22 23 25 26 26 27 27 27 27 27 27 28 28 29 28 28 27
14 16 18 18 18 18 19 19 19 20 21 22 22 23 24 25 26 26 26 27 28 29 29 29 30 30 30 30 30 30 30 29 29 28 27 26 26 25 24 23 23 22 22 21 21 20 21 21 22 24 25 26 27 28 28 27 28 29 29 29 29 29 28
15 16 17 18 18 18 17 18 18 19 20 21 22 23 24 25 26 26 26 27 27 28 29 29 30 30 31 30 30 30 30 30 29 29 28 28 27 26 25 25 24 23 23 22 22 21 21 21 22 23 24 25 26 27 27 27 28 29 30 30 30 29 29
16 17 17 17 18 18 17 17 18 18 19 19 21 23 24 25 26 26 26 26 27 28 29 29 30 31 31 31 31 30 30 30 30 29 29 28 28 27 27 26 25 25 24 24 23 22 22 22 22 23 24 25 26 26 27 27 28 29 30 31 31 30 30
18 19 18 17 17 17 18 18 19 19 19 19 19 21 23 25 26 26 26 26 26 27 28 29 30 31 31 31 31 31 30 30 30 30 29 29 29 28 27 27 27 27 26 25 25 24 23 23 23 23 24 25 26 27 27 27 28 29 30 31 32 31 31
20 20 19 18 17 17 18 19 19 20 20 19 19 20 22 23 25 25 25 25 25 26 27 29 30 30 30 31 31 31 31 30 30 30 30 30 29 29 28 28 28 28 27 27 26 25 25 25 25 25 25 25 26 27 27 28 28 29 30 31 32 32 32
21 20 20 20 19 19 19 19 20 20 20 20 20 20 21 22 23 24 24 24 25 25 26 27 28 29 29 30 31 30 30 30 30 30 30 30 30 30 29 29 29 29 29 28 28 27 27 27 27 26 26 26 26 27 27 28 28 29 30 31 32 32 33
22 21 21 21 20 20 20 20 21 20 20 20 20 20 21 21 22 22 23 24 24 25 26 27 27 28 28 29 30 30 30 30 30 30 30 30 30 30 30 30 30 30 30 30 30 29 29 29 29 28 28 28 27 27 27 28 28 28 30 31 32 32 33
22 22 21 20 20 20 20 21 21 21 21 20 20 20 21 21 21 22 23 24 24 25 26 27 27 27 27 28 28 28 29 29 29 30 30 30 30 31 31 31 31 31 31 31 31 31 31 31 30 30 30 29 29 29 29 28 28 28 29 31 32 32 33
22 22 21 21 21 21 21 22 22 22 22 21 21 20 21 21 21 21 22 23 24 24 25 26 27 27 27 26 27 27 27 28 29 29 29 30 30 30 31 31 31 31 31 31 32 32 32 32 32 31 31 31 31 31 31 30 30 30 30 31 32 32 33
22 22 21 21 21 21 21 22 23 23 23 22 22 21 21 21 21 21 22 23 24 25 25 26 27 27 27 26 26 26 27 27 28 28 28 29 29 30 30 30 31 31 31 31 32 32 32 32 32 32 32 32 32 32 32 32 31 31 31 32 32 33 34
21 21 21 21 21 21 21 21 22 23 23 23 23 22 22 22 22 22 22 22 24 25 25 26 27 27 27 26 26 26 27 27 27 27 28 28 29 29 29 29 30 30 30 31 32 32 32 32 33 33 33 32 32 32 33 33 32 32 33 33 33 34 34
21 21 21 21 20 21 21 21 21 23 23 23 23 23 23 23 23 23 23 22 23 24 25 26 27 27 27 27 27 27 27 27 27 28 28 29 29 29 29 29 29 29 30 31 31 32 32 32 33 33 33 32 32 32 33 33 33 33 35 36 36 36 36
22 21 21 21 20 21 20 20 20 21 22 22 23 23 23 23 23 23 23 23 23 23 24 24 25 26 26 27 27 27 28 28 28 28 28 28 29 29 29 30 30 30 31 31 32 32 32 32 32 32 32 33 33 33 32 32 33 34 36 38 38 39 39
22 21 21 21 21 20 20 19 19 19 20 21 22 23 23 23 23 24 24 24 23 24 23 23 24 25 25 25 26 27 28 28 28 28 28 28 29 29 30 30 31 32 32 32 32 32 32 32 32 32 32 33 33 33 33 33 33 33 34 37 39 40 41
22 22 21 21 21 20 19 19 19 19 19 20 21 22 22 22 22 24 25 24 24 24 24 24 25 25 25 25 25 26 27 28 29 29 29 29 29 29 30 30 31 31 31 31 31 31 31 32 32 32 32 33 32 33 33 33 33 33 33 35 38 40 42
23 23 22 20 20 20 19 19 18 18 19 19 20 20 21 21 21 22 23 23 23 23 24 24 25 26 26 25 25 26 27 27 28 29 29 29 30 30 30 30 31 31 31 31 31 31 32 32 32 33 33 34 34 34 34 34 34 34 34 36 38 39 41
23 23 22 21 20 20 19 19 18 17 17 18 19 20 20 20 21 21 21 21 22 22 23 24 24 25 25 25 26 26 26 27 28 29 29 29 30 30 30 30 30 31 31 31 32 32 32 33 34 34 34 35 35 35 35 35 36 36 36 37 39 40 41
23 23 22 22 21 20 20 19 18 17 17 17 18 19 19 20 20 21 21 22 22 22 23 23 23 24 24 25 25 26 26 27 28 28 29 30 30 30 31 31 31 31 32 32 32 33 33 34 35 35 35 36 36 36 36 37 37 37 37 37 38 39 40
23 22 21 21 21 21 20 19 19 18 17 17 17 18 18 19 20 21 22 22 23 23 23 23 23 24 24 25 25 26 26 27 27 28 29 30 30 31 31 32 32 32 32 32 33 33 33 33 34 35 36 37 37 38 38 38 39 39 38 38 39 39 40
22 21 21 21 21 21 20 19 19 19 18 18 18 18 18 18 19 19 20 21 22 22 23 23 24 24 24 24 25 25 26 27 27 28 28 29 30 30 31 31 32 32 32 33 33 34 34 35 36 37 37 38 39 40 40 41 41 41 40 40 41 41 42
23 22 21 21 21 21 21 20 20 19 19 19 18 18 18 19 19 19 20 20 21 21 21 22 23 23 23 24 24 24 25 25 26 27 28 28 29 30 30 31 31 32 32 33 33 34 35 36 37 38 39 40 41 42 42 43 43 43 43 43 43 43 44
24 23 22 22 22 22 21 21 21 20 20 19 19 19 19 19 20 20 20 21 21 22 22 22 22 23 23 23 24 24 25 25 26 26 27 28 29 29 30 30 30 31 32 33 34 34 35 37 38 39 40 41 43 43 44 45 45 45 46 47 47 48 48
24 24 23 23 22 22 22 22 22 21 20 20 20 19 19 19 20 20 21 21 22 22 23 23 23 24 24 24 25 25 25 26 26 27 27 28 29 29 29 30 30 31 33 34 36 36 37 39 40 41 42 44 45 46 48 49 49 49 49 50 51 51 52
24 24 24 23 23 23 22 22 22 21 21 21 20 20 20 20 20 20 21 21 22 22 23 23 23 23 23 24 24 25 25 25 26 27 27 28 29 29 29 30 31 31 31 33 34 35 37 38 39 41 42 44 46 47 49 51 52 53 54 54 54 54 55
Wind_Direction
213 211 210 210 210 210 210 209 207 206 205 204 206 206 205 206 206 207 209 209 210 210 210 210 211 212 213 215 217 217 217 218 219 220 221 223 224 225 226 226 227 229 231 233 233 233 233 232 231 232 232 232 233 232 230 229 228 227 225 224 225 229 231
213 211 209 210 210 211 211 210 209 208 207 206 207 206 205 206 207 207 209 209 210 210 210 211 212 213 214 216 218 218 219 220 221 222 223 224 224 226 227 228 229 230 231 234 235 235 235 234 233 232 233 233 233 233 232 230 230 229 226 224 225 229 231
212 211 210 210 210 210 210 210 210 209 208 208 207 207 206 207 208 208 209 209 210 211 212 212 213 214 216 217 219 220 221 222 222 223 224 225 225 226 228 229 230 231 232 234 236 236 236 235 235 234 233 233 234 233 232 231 230 230 229 227 227 229 231
212 211 210 210 209 208 208 209 210 210 209 209 209 209 209 209 209 209 209 210 210 211 212 214 215 216 217 218 220 221 222 223 223 224 226 227 227 227 228 230 231 233 233 234 236 237 238 237 236 236 235 234 234 233 233 232 231 230 230 229 229 230 232
211 212 211 210 208 207 208 209 211 211 211 211 212 212 212 211 210 210 210 211 211 212 213 214 216 217 218 219 221 222 223 224 224 225 226 227 228 228 229 231 232 233 234 235 236 237 238 238 238 237 236 235 234 234 234 233 232 231 230 230 230 231 232
211 211 211 209 207 207 207 208 210 211 212 212 212 213 213 213 213 212 212 212 213 214 215 216 217 218 219 220 221 222 223 224 225 227 228 229 229 230 231 232 233 234 235 235 236 237 237 238 238 238 237 237 236 234 234 233 233 231 230 230 231 232 233
211 210 209 208 208 207 206 207 209 210 212 212 212 213 214 214 215 215 215 215 215 215 216 217 218 219 220 221 222 223 223 225 226 227 228 230 231 232 234 234 234 235 236 236 237 237 237 237 238 238 238 237 236 235 234 233 233 233 231 230 231 233 234
212 210 210 210 210 209 207 207 208 209 211 212 214 215 215 215 216 217 217 218 219 218 218 218 219 220 221 221 222 223 224 225 226 227 229 231 232 234 235 236 236 237 237 238 238 238 238 238 238 238 238 238 237 235 234 233 233 233 232 231 231 232 234
213 210 210 212 213 212 210 209 209 210 211 214 216 217 216 216 217 218 220 220 220 220 220 220 220 221 221 221 222 222 223 225 227 229 230 231 233 235 236 237 238 238 238 239 240 240 239 239 239 238 238 238 238 237 235 233 232 234 233 232 231 232 234
216 212 209 210 212 213 213 213 212 213 215 217 219 218 218 217 218 220 221 221 221 222 222 222 221 221 222 222 222 222 223 225 226 228 230 231 233 234 235 237 238 239 239 239 240 241 240 240 239 239 238 238 238 237 236 233 232 233 234 233 232 233 234
212 212 211 212 213 213 214 216 216 217 220 222 223 222 220 219 219 220 221 222 222 223 223 223 223 222 223 224 224 224 224 224 225 227 229 230 231 232 233 235 237 238 238 239 240 240 241 240 239 239 239 238 238 238 237 235 233 233 234 234 234 234 235
211 213 215 215 215 216 216 218 220 222 223 224 224 223 222 221 220 221 221 222 222 222 222 222 222 223 223 224 225 225 225 225 226 228 229 230 231 231 232 234 236 237 238 239 239 240 241 240 239 239 239 239 239 239 238 236 234 234 234 235 235 235 236
213 213 214 215 216 217 218 220 222 224 224 223 223 222 222 222 222 222 222 222 222 222 222 222 222 222 223 224 225 225 226 226 227 228 230 231 231 232 233 234 235 236 238 239 239 240 240 240 240 239 239 239 240 240 239 238 236 235 235 235 236 236 236
213 213 212 213 214 216 219 222 225 227 227 226 224 223 222 222 223 223 223 223 222 222 222 222 221 222 223 224 224 225 226 227 228 229 230 232 232 233 234 235 236 237 238 239 240 240 241 241 240 240 239 239 240 240 240 240 238 237 236 236 236 237 237
221 217 211 211 214 218 222 225 227 228 228 228 227 224 223 223 224 225 225 225 224 223 222 222 221 222 223 224 225 226 226 227 229 230 231 232 233 234 234 235 236 237 238 240 241 242 243 242 241 240 239 239 239 240 241 241 240 239 237 237 237 238 239
229 224 218 217 218 220 225 227 227 227 228 229 229 227 225 226 226 227 227 227 225 224 222 222 221 222 223 224 226 227 227 227 229 231 232 232 233 234 235 236 237 238 239 240 243 244 245 245 243 242 241 239 239 239 241 242 241 240 238 238 238 239 239
230 227 228 230 226 225 229 231 229 228 227 227 229 229 228 229 229 229 228 227 227 225 223 222 222 223 225 226 227 227 227 228 230 231 232 233 234 234 235 236 238 239 240 241 243 245 247 247 246 245 243 242 241 240 241 242 242 240 239 238 238 239 240
231 230 234 239 237 233 235 234 232 231 230 229 229 229 230 230 230 230 230 228 227 226 224 222 223 224 226 226 226 227 228 229 230 232 233 234 234 235 236 237 238 239 240 241 243 246 248 248 247 247 246 245 244 243 243 244 243 241 240 239 239 239 241
235 237 240 243 242 239 238 237 235 234 233 232 231 229 230 230 230 231 232 229 226 225 224 222 223 224 226 226 226 227 228 229 231 232 233 234 235 236 237 237 239 240 241 242 244 247 248 248 248 248 248 247 247 246 246 246 244 242 240 240 239 239 240
239 241 242 244 244 243 242 240 238 236 235 235 233 231 232 231 231 232 230 227 225 225 225 223 223 224 225 226 226 227 228 230 231 233 233 234 235 236 237 239 239 241 242 243 245 247 248 249 249 250 249 249 249 249 248 248 246 244 242 241 240 240 241
241 241 242 243 244 244 243 240 238 237 236 236 235 233 232 232 232 230 228 226 226 225 225 224 223 223 226 227 227 228 229 230 232 233 234 235 236 237 238 239 240 241 243 244 246 248 249 250 250 250 250 251 251 251 251 250 248 246 245 243 242 241 242
242 242 241 241 242 243 243 241 240 239 238 237 237 235 233 232 232 230 227 225 225 225 224 224 223 224 226 227 228 229 230 231 232 233 234 235 236 238 239 240 241 243 244 245 247 249 250 251 251 251 251 251 251 251 252 252 250 248 247 246 244 243 243
242 241 241 242 244 244 244 244 242 241 240 238 237 236 233 231 231 230 227 224 224 225 224 223 224 225 226 228 229 230 231 232 233 235 236 237 238 239 240 241 242 244 245 246 248 249 250 251 251 252 251 250 250 251 253 253 252 250 249 248 246 245 245
239 240 242 243 245 245 245 245 244 242 241 239 238 236 234 232 230 229 227 225 225 225 225 225 226 227 228 229 230 231 232 232 234 235 237 238 239 240 240 241 243 244 246 248 249 250 251 251 251 252 252 251 251 251 252 253 253 251 250 249 248 246 246
236 238 240 242 243 245 246 247 246 244 241 239 238 236 234 233 230 228 227 226 225 225 226 228 230 230 230 231 232 233 233 233 235 237 238 239 239 240 241 242 244 246 248 250 250 250 250 250 251 252 253 254 254 253 254 255 254 252 249 249 248 247 247
236 238 240 241 242 244 246 246 245 243 240 238 237 236 235 233 230 228 227 226 226 227 229 231 232 232 233 234 235 236 235 236 237 239 240 241 241 241 242 244 245 247 249 250 250 250 250 250 251 253 254 255 256 256 256 256 256 253 250 249 248 248 248
237 238 240 241 243 243 243 243 243 241 239 238 238 237 235 233 231 229 228 227 228 230 230 232 233 233 234 235 237 238 238 238 239 240 241 243 243 244 245 247 248 250 250 250 250 250 251 252 253 254 255 256 257 258 257 257 257 256 253 250 249 248 249
238 238 240 241 241 241 241 241 242 241 240 239 238 236 235 234 232 230 230 231 232 233 233 234 234 235 236 237 238 240 240 240 241 241 241 243 245 246 247 249 250 251 251 250 250 251 252 253 254 255 256 258 258 258 258 257 258 258 255 252 250 250 249
240 240 241 242 241 240 241 242 242 242 241 238 236 236 235 234 233 232 233 234 234 235 235 236 237 238 239 240 241 241 241 241 241 242 243 245 246 248 250 250 250 251 251 250 249 251 252 253 254 255 257 259 259 259 259 259 259 258 257 254 252 252 251
240 240 241 242 241 240 240 242 243 243 242 238 236 235 235 233 232 232 233 234 235 235 235 236 238 240 241 243 243 243 243 243 243 244 245 246 248 250 251 251 251 251 251 250 250 252 253 254 254 256 258 259 260 259 259 259 259 258 256 255 255 255 254
239 239 239 240 240 239 238 240 242 244 244 240 236 235 234 233 231 230 232 234 236 236 237 238 239 240 242 243 244 244 245 245 246 246 247 248 250 251 252 251 251 252 251 251 251 252 254 255 256 257 259 260 261 261 260 260 260 259 257 256 256 257 257
238 238 238 238 239 238 237 238 240 243 244 242 239 237 236 234 233 232 234 236 238 239 240 240 241 241 242 243 244 245 245 246 247 248 249 251 252 253 252 252 252 252 252 252 252 254 256 258 258 259 261 262 262 262 262 261 261 261 260 258 257 257 257
238 237 237 238 238 238 237 237 238 240 241 242 242 240 238 236 236 236 237 238 240 240 241 242 243 243 244 244 245 246 246 247 249 250 250 251 252 252 252 252 253 254 254 254 255 256 258 260 261 261 262 263 264 264 263 262 262 262 261 260 259 258 258
237 236 236 237 238 238 237 236 236 236 238 240 242 242 242 241 241 241 241 242 242 243 243 243 244 245 246 246 247 249 249 249 250 250 251 252 252 252 253 253 254 255 255 256 257 258 260 261 262 263 263 264 264 264 264 263 264 263 263 262 261 259 258
235 235 236 236 237 238 238 237 236 236 237 240 242 243 243 244 244 244 245 246 246 246 246 246 246 247 248 248 249 250 250 250 251 251 252 252 253 254 255 255 256 257 257 258 259 261 262 264 265 265 266 266 266 266 265 265 265 265 264 263 261 260 259
235 234 234 234 235 236 237 237 236 236 237 240 241 242 243 244 245 246 246 247 247 247 246 246 247 248 249 250 250 251 251 251 252 253 253 254 255 256 257 258 258 258 259 260 262 263 264 265 266 267 268 269 269 269 268 268 268 268 266 264 262 261 261
234 233 233 233 234 234 235 235 236 237 237 239 241 242 243 245 246 247 247 248 248 247 247 246 247 248 249 250 251 251 252 253 254 255 256 256 257 258 259 260 260 261 261 262 263 264 266 267 268 269 270 270 271 271 271 270 270 270 268 267 265 263 261
233 233 233 233 234 233 234 235 236 237 237 238 239 241 243 246 249 250 250 250 249 249 249 248 249 250 250 251 252 252 253 255 256 256 257 257 258 259 259 260 261 262 263 263 264 266 268 270 272 272 273 273 273 273 273 272 271 270 270 268 266 264 262